Year,Month,Day,Hour,Minute,Value (Times are PST for temperature in C)
2008,05,31,00,00,8.10
2008,05,31,00,01,8.10
2008,05,31,00,02,8.10
2008,05,31,00,03,8.10
2008,05,31,00,04,8.00
2008,05,31,00,05,8.00
2008,05,31,00,06,8.00
2008,05,31,00,07,8.00
2008,05,31,00,08,8.00
2008,05,31,00,09,8.00
2008,05,31,00,10,7.90
2008,05,31,00,11,7.90
2008,05,31,00,12,7.90
2008,05,31,00,13,7.90
2008,05,31,00,14,7.90
2008,05,31,00,15,7.90
2008,05,31,00,16,7.90
2008,05,31,00,17,7.90
2008,05,31,00,18,7.90
2008,05,31,00,19,7.90
2008,05,31,00,20,7.90
2008,05,31,00,21,7.90
2008,05,31,00,22,7.80
2008,05,31,00,23,7.80
2008,05,31,00,24,7.80
2008,05,31,00,25,7.80
2008,05,31,00,26,7.80
2008,05,31,00,27,7.80
2008,05,31,00,28,7.80
2008,05,31,00,29,7.80
2008,05,31,00,30,7.80
2008,05,31,00,31,7.70
2008,05,31,00,32,7.70
2008,05,31,00,33,7.70
2008,05,31,00,34,7.70
2008,05,31,00,35,7.70
2008,05,31,00,36,7.70
2008,05,31,00,37,7.70
2008,05,31,00,38,7.70
2008,05,31,00,39,7.70
2008,05,31,00,40,7.70
2008,05,31,00,41,7.70
2008,05,31,00,42,7.70
2008,05,31,00,43,7.70
2008,05,31,00,44,7.70
2008,05,31,00,45,7.70
2008,05,31,00,46,7.70
2008,05,31,00,47,7.70
2008,05,31,00,48,7.60
2008,05,31,00,49,7.60
2008,05,31,00,50,7.60
2008,05,31,00,51,7.60
2008,05,31,00,52,7.60
2008,05,31,00,53,7.60
2008,05,31,00,54,7.60
2008,05,31,00,55,7.60
2008,05,31,00,56,7.60
2008,05,31,00,57,7.60
2008,05,31,00,58,7.60
2008,05,31,00,59,7.60
2008,05,31,01,00,7.60
2008,05,31,01,01,7.50
2008,05,31,01,02,7.50
2008,05,31,01,03,7.50
2008,05,31,01,04,7.50
2008,05,31,01,05,7.50
2008,05,31,01,06,7.40
2008,05,31,01,07,7.40
2008,05,31,01,08,7.40
2008,05,31,01,09,7.40
2008,05,31,01,10,7.40
2008,05,31,01,11,7.40
2008,05,31,01,12,7.40
2008,05,31,01,13,7.40
2008,05,31,01,14,7.40
2008,05,31,01,15,7.40
2008,05,31,01,16,7.40
2008,05,31,01,17,7.40
2008,05,31,01,18,7.40
2008,05,31,01,19,7.40
2008,05,31,01,20,7.40
2008,05,31,01,21,7.40
2008,05,31,01,22,7.40
2008,05,31,01,23,7.40
2008,05,31,01,24,7.40
2008,05,31,01,25,7.50
2008,05,31,01,26,7.40
2008,05,31,01,27,7.50
2008,05,31,01,28,7.50
2008,05,31,01,29,7.40
2008,05,31,01,30,7.40
2008,05,31,01,31,7.40
2008,05,31,01,32,7.40
2008,05,31,01,33,7.40
2008,05,31,01,34,7.40
2008,05,31,01,35,7.40
2008,05,31,01,36,7.40
2008,05,31,01,37,7.40
2008,05,31,01,38,7.40
2008,05,31,01,39,7.40
2008,05,31,01,40,7.40
2008,05,31,01,41,7.40
2008,05,31,01,42,7.40
2008,05,31,01,43,7.40
2008,05,31,01,44,7.40
2008,05,31,01,45,7.40
2008,05,31,01,46,7.40
2008,05,31,01,47,7.40
2008,05,31,01,48,7.40
2008,05,31,01,49,7.40
2008,05,31,01,50,7.40
2008,05,31,01,51,7.40
2008,05,31,01,52,7.40
2008,05,31,01,53,7.40
2008,05,31,01,54,7.40
2008,05,31,01,55,7.40
2008,05,31,01,56,7.40
2008,05,31,01,57,7.30
2008,05,31,01,58,7.30
2008,05,31,01,59,7.30
2008,05,31,02,00,7.30
2008,05,31,02,01,7.30
2008,05,31,02,02,7.30
2008,05,31,02,03,7.30
2008,05,31,02,04,7.30
2008,05,31,02,05,7.30
2008,05,31,02,06,7.30
2008,05,31,02,07,7.30
2008,05,31,02,08,7.30
2008,05,31,02,09,7.30
2008,05,31,02,10,7.30
2008,05,31,02,11,7.30
2008,05,31,02,12,7.30
2008,05,31,02,13,7.30
2008,05,31,02,14,7.30
2008,05,31,02,15,7.30
2008,05,31,02,16,7.30
2008,05,31,02,17,7.30
2008,05,31,02,18,7.30
2008,05,31,02,19,7.30
2008,05,31,02,20,7.20
2008,05,31,02,21,7.20
2008,05,31,02,22,7.20
2008,05,31,02,23,7.20
2008,05,31,02,24,7.20
2008,05,31,02,25,7.20
2008,05,31,02,26,7.20
2008,05,31,02,27,7.20
2008,05,31,02,28,7.20
2008,05,31,02,29,7.20
2008,05,31,02,30,7.20
2008,05,31,02,31,7.20
2008,05,31,02,32,7.20
2008,05,31,02,33,7.20
2008,05,31,02,34,7.20
2008,05,31,02,35,7.20
2008,05,31,02,36,7.20
2008,05,31,02,37,7.20
2008,05,31,02,38,7.20
2008,05,31,02,39,7.20
2008,05,31,02,40,7.20
2008,05,31,02,41,7.20
2008,05,31,02,42,7.20
2008,05,31,02,43,7.20
2008,05,31,02,44,7.10
2008,05,31,02,45,7.20
2008,05,31,02,46,7.20
2008,05,31,02,47,7.20
2008,05,31,02,48,7.20
2008,05,31,02,49,7.20
2008,05,31,02,50,7.20
2008,05,31,02,51,7.20
2008,05,31,02,52,7.20
2008,05,31,02,53,7.20
2008,05,31,02,54,7.20
2008,05,31,02,55,7.20
2008,05,31,02,56,7.20
2008,05,31,02,57,7.20
2008,05,31,02,58,7.20
2008,05,31,02,59,7.20
2008,05,31,03,00,7.20
2008,05,31,03,01,7.20
2008,05,31,03,02,7.10
2008,05,31,03,03,7.10
2008,05,31,03,04,7.10
2008,05,31,03,05,7.10
2008,05,31,03,06,7.10
2008,05,31,03,07,7.10
2008,05,31,03,08,7.10
2008,05,31,03,09,7.10
2008,05,31,03,10,7.10
2008,05,31,03,11,7.10
2008,05,31,03,12,7.10
2008,05,31,03,13,7.10
2008,05,31,03,14,7.10
2008,05,31,03,15,7.10
2008,05,31,03,16,7.10
2008,05,31,03,17,7.10
2008,05,31,03,18,7.10
2008,05,31,03,19,7.10
2008,05,31,03,20,7.10
2008,05,31,03,21,7.00
2008,05,31,03,22,7.00
2008,05,31,03,23,7.00
2008,05,31,03,24,6.90
2008,05,31,03,25,6.90
2008,05,31,03,26,6.90
2008,05,31,03,27,6.90
2008,05,31,03,28,6.90
2008,05,31,03,29,6.90
2008,05,31,03,30,6.90
2008,05,31,03,31,6.80
2008,05,31,03,32,6.80
2008,05,31,03,33,6.80
2008,05,31,03,34,6.80
2008,05,31,03,35,6.80
2008,05,31,03,36,6.80
2008,05,31,03,37,6.80
2008,05,31,03,38,6.90
2008,05,31,03,39,6.90
2008,05,31,03,40,6.90
2008,05,31,03,41,6.80
2008,05,31,03,42,6.80
2008,05,31,03,43,6.90
2008,05,31,03,44,6.80
2008,05,31,03,45,6.80
2008,05,31,03,46,6.80
2008,05,31,03,47,6.80
2008,05,31,03,48,6.80
2008,05,31,03,49,6.80
2008,05,31,03,50,6.80
2008,05,31,03,51,6.80
2008,05,31,03,52,6.80
2008,05,31,03,53,6.80
2008,05,31,03,54,6.80
2008,05,31,03,55,6.80
2008,05,31,03,56,6.80
2008,05,31,03,57,6.80
2008,05,31,03,58,6.80
2008,05,31,03,59,6.80
2008,05,31,04,00,6.80
2008,05,31,04,01,6.70
2008,05,31,04,02,6.70
2008,05,31,04,03,6.70
2008,05,31,04,04,6.70
2008,05,31,04,05,6.70
2008,05,31,04,06,6.70
2008,05,31,04,07,6.70
2008,05,31,04,08,6.70
2008,05,31,04,09,6.70
2008,05,31,04,10,6.70
2008,05,31,04,11,6.70
2008,05,31,04,12,6.70
2008,05,31,04,13,6.70
2008,05,31,04,14,6.70
2008,05,31,04,15,6.70
2008,05,31,04,16,6.70
2008,05,31,04,17,6.70
2008,05,31,04,18,6.70
2008,05,31,04,19,6.70
2008,05,31,04,20,6.70
2008,05,31,04,21,6.70
2008,05,31,04,22,6.70
2008,05,31,04,23,6.70
2008,05,31,04,24,6.60
2008,05,31,04,25,6.60
2008,05,31,04,26,6.60
2008,05,31,04,27,6.60
2008,05,31,04,28,6.60
2008,05,31,04,29,6.60
2008,05,31,04,30,6.60
2008,05,31,04,31,6.60
2008,05,31,04,32,6.60
2008,05,31,04,33,6.60
2008,05,31,04,34,6.60
2008,05,31,04,35,6.60
2008,05,31,04,36,6.60
2008,05,31,04,37,6.50
2008,05,31,04,38,6.50
2008,05,31,04,39,6.60
2008,05,31,04,40,6.50
2008,05,31,04,41,6.50
2008,05,31,04,42,6.50
2008,05,31,04,43,6.50
2008,05,31,04,44,6.50
2008,05,31,04,45,6.50
2008,05,31,04,46,6.50
2008,05,31,04,47,6.50
2008,05,31,04,48,6.50
2008,05,31,04,49,6.50
2008,05,31,04,50,6.50
2008,05,31,04,51,6.50
2008,05,31,04,52,6.50
2008,05,31,04,53,6.50
2008,05,31,04,54,6.40
2008,05,31,04,55,6.40
2008,05,31,04,56,6.40
2008,05,31,04,57,6.40
2008,05,31,04,58,6.40
2008,05,31,04,59,6.40
2008,05,31,05,00,6.40
2008,05,31,05,01,6.40
2008,05,31,05,02,6.40
2008,05,31,05,03,6.30
2008,05,31,05,04,6.30
2008,05,31,05,05,6.30
2008,05,31,05,06,6.30
2008,05,31,05,07,6.30
2008,05,31,05,08,6.30
2008,05,31,05,09,6.30
2008,05,31,05,10,6.30
2008,05,31,05,11,6.30
2008,05,31,05,12,6.30
2008,05,31,05,13,6.30
2008,05,31,05,14,6.30
2008,05,31,05,15,6.30
2008,05,31,05,16,6.30
2008,05,31,05,17,6.30
2008,05,31,05,18,6.30
2008,05,31,05,19,6.30
2008,05,31,05,20,6.30
2008,05,31,05,21,6.30
2008,05,31,05,22,6.30
2008,05,31,05,23,6.30
2008,05,31,05,24,6.30
2008,05,31,05,25,6.30
2008,05,31,05,26,6.30
2008,05,31,05,27,6.30
2008,05,31,05,28,6.20
2008,05,31,05,29,6.20
2008,05,31,05,30,6.20
2008,05,31,05,31,6.20
2008,05,31,05,32,6.20
2008,05,31,05,33,6.20
2008,05,31,05,34,6.20
2008,05,31,05,35,6.20
2008,05,31,05,36,6.20
2008,05,31,05,37,6.20
2008,05,31,05,38,6.20
2008,05,31,05,39,6.20
2008,05,31,05,40,6.20
2008,05,31,05,41,6.20
2008,05,31,05,42,6.20
2008,05,31,05,43,6.20
2008,05,31,05,44,6.20
2008,05,31,05,45,6.20
2008,05,31,05,46,6.20
2008,05,31,05,47,6.20
2008,05,31,05,48,6.20
2008,05,31,05,49,6.20
2008,05,31,05,50,6.20
2008,05,31,05,51,6.20
2008,05,31,05,52,6.20
2008,05,31,05,53,6.20
2008,05,31,05,54,6.20
2008,05,31,05,55,6.20
2008,05,31,05,56,6.20
2008,05,31,05,57,6.20
2008,05,31,05,58,6.20
2008,05,31,05,59,6.20
2008,05,31,06,00,6.20
2008,05,31,06,01,6.20
2008,05,31,06,02,6.20
2008,05,31,06,03,6.20
2008,05,31,06,04,6.20
2008,05,31,06,05,6.20
2008,05,31,06,06,6.20
2008,05,31,06,07,6.20
2008,05,31,06,08,6.20
2008,05,31,06,09,6.20
2008,05,31,06,10,6.20
2008,05,31,06,11,6.20
2008,05,31,06,12,6.20
2008,05,31,06,13,6.30
2008,05,31,06,14,6.30
2008,05,31,06,15,6.30
2008,05,31,06,16,6.30
2008,05,31,06,17,6.30
2008,05,31,06,18,6.30
2008,05,31,06,19,6.30
2008,05,31,06,20,6.30
2008,05,31,06,21,6.30
2008,05,31,06,22,6.40
2008,05,31,06,23,6.40
2008,05,31,06,24,6.40
2008,05,31,06,25,6.40
2008,05,31,06,26,6.40
2008,05,31,06,27,6.40
2008,05,31,06,28,6.50
2008,05,31,06,29,6.50
2008,05,31,06,30,6.50
2008,05,31,06,31,6.60
2008,05,31,06,32,6.60
2008,05,31,06,33,6.60
2008,05,31,06,34,6.60
2008,05,31,06,35,6.60
2008,05,31,06,36,6.70
2008,05,31,06,37,6.70
2008,05,31,06,38,6.80
2008,05,31,06,39,6.80
2008,05,31,06,40,6.80
2008,05,31,06,41,6.80
2008,05,31,06,42,6.90
2008,05,31,06,43,6.90
2008,05,31,06,44,6.90
2008,05,31,06,45,7.00
2008,05,31,06,46,7.00
2008,05,31,06,47,7.10
2008,05,31,06,48,7.10
2008,05,31,06,49,7.20
2008,05,31,06,50,7.20
2008,05,31,06,51,7.30
2008,05,31,06,52,7.40
2008,05,31,06,53,7.60
2008,05,31,06,54,7.70
2008,05,31,06,55,7.80
2008,05,31,06,56,7.90
2008,05,31,06,57,8.00
2008,05,31,06,58,8.10
2008,05,31,06,59,8.30
2008,05,31,07,00,8.30
2008,05,31,07,01,8.40
2008,05,31,07,02,8.60
2008,05,31,07,03,8.70
2008,05,31,07,04,8.80
2008,05,31,07,05,8.90
2008,05,31,07,06,9.00
2008,05,31,07,07,9.10
2008,05,31,07,08,9.20
2008,05,31,07,09,9.20
2008,05,31,07,10,9.30
2008,05,31,07,11,9.30
2008,05,31,07,12,9.30
2008,05,31,07,13,9.30
2008,05,31,07,14,9.40
2008,05,31,07,15,9.50
2008,05,31,07,16,9.50
2008,05,31,07,17,9.50
2008,05,31,07,18,9.60
2008,05,31,07,19,9.60
2008,05,31,07,20,9.60
2008,05,31,07,21,9.60
2008,05,31,07,22,9.60
2008,05,31,07,23,9.60
2008,05,31,07,24,9.70
2008,05,31,07,25,9.70
2008,05,31,07,26,9.70
2008,05,31,07,27,9.80
2008,05,31,07,28,9.80
2008,05,31,07,29,9.80
2008,05,31,07,30,9.80
2008,05,31,07,31,9.80
2008,05,31,07,32,9.80
2008,05,31,07,33,9.90
2008,05,31,07,34,9.90
2008,05,31,07,35,10.00
2008,05,31,07,36,10.00
2008,05,31,07,37,10.10
2008,05,31,07,38,10.10
2008,05,31,07,39,10.10
2008,05,31,07,40,10.20
2008,05,31,07,41,10.20
2008,05,31,07,42,10.20
2008,05,31,07,43,10.30
2008,05,31,07,44,10.30
2008,05,31,07,45,10.40
2008,05,31,07,46,10.40
2008,05,31,07,47,10.50
2008,05,31,07,48,10.60
2008,05,31,07,49,10.60
2008,05,31,07,50,10.70
2008,05,31,07,51,10.80
2008,05,31,07,52,10.80
2008,05,31,07,53,10.90
2008,05,31,07,54,11.00
2008,05,31,07,55,11.00
2008,05,31,07,56,11.10
2008,05,31,07,57,11.20
2008,05,31,07,58,11.20
2008,05,31,07,59,11.30
2008,05,31,08,00,11.30
2008,05,31,08,01,11.30
2008,05,31,08,02,11.40
2008,05,31,08,03,11.40
2008,05,31,08,04,11.50
2008,05,31,08,05,11.50
2008,05,31,08,06,11.50
2008,05,31,08,07,11.60
2008,05,31,08,08,11.70
2008,05,31,08,09,11.70
2008,05,31,08,10,11.70
2008,05,31,08,11,11.70
2008,05,31,08,12,11.80
2008,05,31,08,13,11.80
2008,05,31,08,14,11.80
2008,05,31,08,15,11.90
2008,05,31,08,16,11.90
2008,05,31,08,17,11.90
2008,05,31,08,18,12.00
2008,05,31,08,19,12.00
2008,05,31,08,20,12.10
2008,05,31,08,21,12.10
2008,05,31,08,22,12.10
2008,05,31,08,23,12.10
2008,05,31,08,24,12.10
2008,05,31,08,25,12.20
2008,05,31,08,26,12.20
2008,05,31,08,27,12.30
2008,05,31,08,28,12.30
2008,05,31,08,29,12.30
2008,05,31,08,30,12.20
2008,05,31,08,31,12.20
2008,05,31,08,32,12.20
2008,05,31,08,33,12.20
2008,05,31,08,34,12.20
2008,05,31,08,35,12.10
2008,05,31,08,36,12.10
2008,05,31,08,37,12.10
2008,05,31,08,38,12.10
2008,05,31,08,39,12.20
2008,05,31,08,40,12.20
2008,05,31,08,41,12.20
2008,05,31,08,42,12.20
2008,05,31,08,43,12.20
2008,05,31,08,44,12.20
2008,05,31,08,45,12.20
2008,05,31,08,46,12.30
2008,05,31,08,47,12.30
2008,05,31,08,48,12.30
2008,05,31,08,49,12.30
2008,05,31,08,50,12.30
2008,05,31,08,51,12.30
2008,05,31,08,52,12.40
2008,05,31,08,53,12.40
2008,05,31,08,54,12.50
2008,05,31,08,55,12.50
2008,05,31,08,56,12.60
2008,05,31,08,57,12.60
2008,05,31,08,58,12.60
2008,05,31,08,59,12.70
2008,05,31,09,00,12.70
2008,05,31,09,01,12.70
2008,05,31,09,02,12.70
2008,05,31,09,03,12.70
2008,05,31,09,04,12.70
2008,05,31,09,05,12.70
2008,05,31,09,06,12.70
2008,05,31,09,07,12.70
2008,05,31,09,08,12.70
2008,05,31,09,09,12.70
2008,05,31,09,10,12.70
2008,05,31,09,11,12.80
2008,05,31,09,12,12.80
2008,05,31,09,13,12.90
2008,05,31,09,14,12.90
2008,05,31,09,15,12.90
2008,05,31,09,16,12.90
2008,05,31,09,17,12.90
2008,05,31,09,18,13.00
2008,05,31,09,19,13.00
2008,05,31,09,20,13.10
2008,05,31,09,21,13.20
2008,05,31,09,22,13.20
2008,05,31,09,23,13.20
2008,05,31,09,24,13.40
2008,05,31,09,25,13.40
2008,05,31,09,26,13.50
2008,05,31,09,27,13.50
2008,05,31,09,28,13.60
2008,05,31,09,29,13.60
2008,05,31,09,30,13.70
2008,05,31,09,31,13.70
2008,05,31,09,32,13.80
2008,05,31,09,33,13.80
2008,05,31,09,34,13.80
2008,05,31,09,35,13.80
2008,05,31,09,36,13.90
2008,05,31,09,37,14.00
2008,05,31,09,38,14.00
2008,05,31,09,39,14.10
2008,05,31,09,40,14.10
2008,05,31,09,41,14.10
2008,05,31,09,42,14.20
2008,05,31,09,43,14.20
2008,05,31,09,44,14.20
2008,05,31,09,45,14.30
2008,05,31,09,46,14.30
2008,05,31,09,47,14.20
2008,05,31,09,48,14.20
2008,05,31,09,49,14.20
2008,05,31,09,50,14.20
2008,05,31,09,51,14.20
2008,05,31,09,52,14.30
2008,05,31,09,53,14.30
2008,05,31,09,54,14.30
2008,05,31,09,55,14.40
2008,05,31,09,56,14.40
2008,05,31,09,57,14.50
2008,05,31,09,58,14.50
2008,05,31,09,59,14.50
2008,05,31,10,00,14.60
2008,05,31,10,01,14.70
2008,05,31,10,02,14.70
2008,05,31,10,03,14.70
2008,05,31,10,04,14.70
2008,05,31,10,05,14.70
2008,05,31,10,06,14.80
2008,05,31,10,07,14.80
2008,05,31,10,08,14.90
2008,05,31,10,09,14.90
2008,05,31,10,10,14.90
2008,05,31,10,11,15.00
2008,05,31,10,12,15.00
2008,05,31,10,13,15.00
2008,05,31,10,14,15.00
2008,05,31,10,15,15.00
2008,05,31,10,16,15.00
2008,05,31,10,17,15.00
2008,05,31,10,18,15.00
2008,05,31,10,19,15.00
2008,05,31,10,20,15.00
2008,05,31,10,21,15.00
2008,05,31,10,22,15.00
2008,05,31,10,23,15.00
2008,05,31,10,24,15.00
2008,05,31,10,25,15.00
2008,05,31,10,26,14.80
2008,05,31,10,27,14.80
2008,05,31,10,28,14.70
2008,05,31,10,29,14.50
2008,05,31,10,30,14.50
2008,05,31,10,31,14.40
2008,05,31,10,32,14.40
2008,05,31,10,33,14.40
2008,05,31,10,34,14.50
2008,05,31,10,35,14.50
2008,05,31,10,36,14.60
2008,05,31,10,37,14.60
2008,05,31,10,38,14.60
2008,05,31,10,39,14.60
2008,05,31,10,40,14.60
2008,05,31,10,41,14.60
2008,05,31,10,42,14.70
2008,05,31,10,43,14.70
2008,05,31,10,44,14.80
2008,05,31,10,45,14.80
2008,05,31,10,46,14.80
2008,05,31,10,47,14.80
2008,05,31,10,48,14.90
2008,05,31,10,49,15.00
2008,05,31,10,50,15.00
2008,05,31,10,51,15.00
2008,05,31,10,52,15.00
2008,05,31,10,53,15.00
2008,05,31,10,54,14.90
2008,05,31,10,55,14.80
2008,05,31,10,56,14.80
2008,05,31,10,57,14.90
2008,05,31,10,58,15.00
2008,05,31,10,59,15.00
2008,05,31,11,00,15.00
2008,05,31,11,01,15.00
2008,05,31,11,02,15.00
2008,05,31,11,03,15.10
2008,05,31,11,04,15.20
2008,05,31,11,05,15.20
2008,05,31,11,06,15.30
2008,05,31,11,07,15.40
2008,05,31,11,08,15.40
2008,05,31,11,09,15.40
2008,05,31,11,10,15.30
2008,05,31,11,11,15.30
2008,05,31,11,12,15.30
2008,05,31,11,13,15.30
2008,05,31,11,14,15.40
2008,05,31,11,15,15.40
2008,05,31,11,16,15.40
2008,05,31,11,17,15.30
2008,05,31,11,18,15.40
2008,05,31,11,19,15.40
2008,05,31,11,20,15.40
2008,05,31,11,21,15.50
2008,05,31,11,22,15.50
2008,05,31,11,23,15.60
2008,05,31,11,24,15.60
2008,05,31,11,25,15.50
2008,05,31,11,26,15.60
2008,05,31,11,27,15.60
2008,05,31,11,28,15.70
2008,05,31,11,29,15.70
2008,05,31,11,30,15.80
2008,05,31,11,31,15.80
2008,05,31,11,32,15.90
2008,05,31,11,33,16.00
2008,05,31,11,34,16.10
2008,05,31,11,35,16.20
2008,05,31,11,36,16.20
2008,05,31,11,37,16.20
2008,05,31,11,38,16.20
2008,05,31,11,39,16.30
2008,05,31,11,40,16.30
2008,05,31,11,41,16.40
2008,05,31,11,42,16.40
2008,05,31,11,43,16.30
2008,05,31,11,44,16.40
2008,05,31,11,45,16.40
2008,05,31,11,46,16.50
2008,05,31,11,47,16.50
2008,05,31,11,48,16.50
2008,05,31,11,49,16.50
2008,05,31,11,50,16.40
2008,05,31,11,51,16.30
2008,05,31,11,52,16.20
2008,05,31,11,53,16.10
2008,05,31,11,54,16.20
2008,05,31,11,55,16.20
2008,05,31,11,56,16.20
2008,05,31,11,57,16.30
2008,05,31,11,58,16.40
2008,05,31,11,59,16.50
2008,05,31,12,00,16.50
2008,05,31,12,01,16.60
2008,05,31,12,02,16.60
2008,05,31,12,03,16.50
2008,05,31,12,04,16.40
2008,05,31,12,05,16.30
2008,05,31,12,06,16.30
2008,05,31,12,07,16.30
2008,05,31,12,08,16.30
2008,05,31,12,09,16.30
2008,05,31,12,10,16.40
2008,05,31,12,11,16.50
2008,05,31,12,12,16.50
2008,05,31,12,13,16.50
2008,05,31,12,14,16.60
2008,05,31,12,15,16.60
2008,05,31,12,16,16.50
2008,05,31,12,17,16.50
2008,05,31,12,18,16.50
2008,05,31,12,19,16.60
2008,05,31,12,20,16.70
2008,05,31,12,21,16.70
2008,05,31,12,22,16.70
2008,05,31,12,23,16.80
2008,05,31,12,24,16.80
2008,05,31,12,25,16.90
2008,05,31,12,26,17.00
2008,05,31,12,27,17.00
2008,05,31,12,28,17.10
2008,05,31,12,29,17.00
2008,05,31,12,30,16.90
2008,05,31,12,31,16.90
2008,05,31,12,32,16.90
2008,05,31,12,33,16.90
2008,05,31,12,34,17.00
2008,05,31,12,35,17.00
2008,05,31,12,36,17.00
2008,05,31,12,37,17.00
2008,05,31,12,38,17.00
2008,05,31,12,39,17.00
2008,05,31,12,40,16.90
2008,05,31,12,41,16.90
2008,05,31,12,42,16.90
2008,05,31,12,43,16.90
2008,05,31,12,44,16.90
2008,05,31,12,45,17.00
2008,05,31,12,46,17.00
2008,05,31,12,47,17.00
2008,05,31,12,48,17.00
2008,05,31,12,49,17.00
2008,05,31,12,50,17.00
2008,05,31,12,51,17.00
2008,05,31,12,52,16.90
2008,05,31,12,53,17.00
2008,05,31,12,54,17.00
2008,05,31,12,55,17.10
2008,05,31,12,56,17.10
2008,05,31,12,57,17.20
2008,05,31,12,58,17.30
2008,05,31,12,59,17.30
2008,05,31,13,00,17.40
2008,05,31,13,01,17.40
2008,05,31,13,02,17.30
2008,05,31,13,03,17.10
2008,05,31,13,04,17.10
2008,05,31,13,05,17.10
2008,05,31,13,06,17.10
2008,05,31,13,07,17.20
2008,05,31,13,08,17.30
2008,05,31,13,09,17.30
2008,05,31,13,10,17.20
2008,05,31,13,11,17.20
2008,05,31,13,12,17.30
2008,05,31,13,13,17.30
2008,05,31,13,14,17.30
2008,05,31,13,15,17.30
2008,05,31,13,16,17.30
2008,05,31,13,17,17.40
2008,05,31,13,18,17.40
2008,05,31,13,19,17.30
2008,05,31,13,20,17.40
2008,05,31,13,21,17.40
2008,05,31,13,22,17.40
2008,05,31,13,23,17.40
2008,05,31,13,24,17.50
2008,05,31,13,25,17.50
2008,05,31,13,26,17.60
2008,05,31,13,27,17.60
2008,05,31,13,28,17.60
2008,05,31,13,29,17.60
2008,05,31,13,30,17.50
2008,05,31,13,31,17.40
2008,05,31,13,32,17.40
2008,05,31,13,33,17.30
2008,05,31,13,34,17.20
2008,05,31,13,35,17.10
2008,05,31,13,36,17.10
2008,05,31,13,37,17.20
2008,05,31,13,38,17.30
2008,05,31,13,39,17.40
2008,05,31,13,40,17.50
2008,05,31,13,41,17.70
2008,05,31,13,42,17.80
2008,05,31,13,43,17.80
2008,05,31,13,44,17.90
2008,05,31,13,45,18.00
2008,05,31,13,46,18.00
2008,05,31,13,47,17.90
2008,05,31,13,48,17.90
2008,05,31,13,49,17.90
2008,05,31,13,50,18.00
2008,05,31,13,51,18.10
2008,05,31,13,52,18.20
2008,05,31,13,53,18.20
2008,05,31,13,54,18.30
2008,05,31,13,55,18.30
2008,05,31,13,56,18.30
2008,05,31,13,57,18.30
2008,05,31,13,58,18.30
2008,05,31,13,59,18.30
2008,05,31,14,00,18.30
2008,05,31,14,01,18.30
2008,05,31,14,02,18.30
2008,05,31,14,03,18.30
2008,05,31,14,04,18.30
2008,05,31,14,05,18.30
2008,05,31,14,06,18.20
2008,05,31,14,07,18.20
2008,05,31,14,08,18.10
2008,05,31,14,09,18.10
2008,05,31,14,10,18.10
2008,05,31,14,11,18.10
2008,05,31,14,12,18.10
2008,05,31,14,13,18.20
2008,05,31,14,14,18.10
2008,05,31,14,15,18.00
2008,05,31,14,16,18.00
2008,05,31,14,17,18.10
2008,05,31,14,18,18.20
2008,05,31,14,19,18.30
2008,05,31,14,20,18.30
2008,05,31,14,21,18.40
2008,05,31,14,22,18.30
2008,05,31,14,23,18.30
2008,05,31,14,24,18.30
2008,05,31,14,25,18.30
2008,05,31,14,26,18.30
2008,05,31,14,27,18.30
2008,05,31,14,28,18.30
2008,05,31,14,29,18.30
2008,05,31,14,30,18.30
2008,05,31,14,31,18.40
2008,05,31,14,32,18.40
2008,05,31,14,33,18.40
2008,05,31,14,34,18.40
2008,05,31,14,35,18.50
2008,05,31,14,36,18.50
2008,05,31,14,37,18.60
2008,05,31,14,38,18.50
2008,05,31,14,39,18.50
2008,05,31,14,40,18.60
2008,05,31,14,41,18.50
2008,05,31,14,42,18.50
2008,05,31,14,43,18.40
2008,05,31,14,44,18.40
2008,05,31,14,45,18.40
2008,05,31,14,46,18.50
2008,05,31,14,47,18.60
2008,05,31,14,48,18.60
2008,05,31,14,49,18.60
2008,05,31,14,50,18.60
2008,05,31,14,51,18.60
2008,05,31,14,52,18.60
2008,05,31,14,53,18.60
2008,05,31,14,54,18.60
2008,05,31,14,55,18.60
2008,05,31,14,56,18.50
2008,05,31,14,57,18.40
2008,05,31,14,58,18.30
2008,05,31,14,59,18.10
2008,05,31,15,00,18.00
2008,05,31,15,01,17.90
2008,05,31,15,02,17.80
2008,05,31,15,03,17.80
2008,05,31,15,04,17.70
2008,05,31,15,05,17.70
2008,05,31,15,06,17.60
2008,05,31,15,07,17.60
2008,05,31,15,08,17.60
2008,05,31,15,09,17.60
2008,05,31,15,10,17.50
2008,05,31,15,11,17.40
2008,05,31,15,12,17.40
2008,05,31,15,13,17.30
2008,05,31,15,14,17.20
2008,05,31,15,15,17.20
2008,05,31,15,16,17.10
2008,05,31,15,17,17.10
2008,05,31,15,18,17.10
2008,05,31,15,19,17.20
2008,05,31,15,20,17.30
2008,05,31,15,21,17.30
2008,05,31,15,22,17.30
2008,05,31,15,23,17.30
2008,05,31,15,24,17.30
2008,05,31,15,25,17.30
2008,05,31,15,26,17.40
2008,05,31,15,27,17.40
2008,05,31,15,28,17.40
2008,05,31,15,29,17.30
2008,05,31,15,30,17.20
2008,05,31,15,31,17.10
2008,05,31,15,32,17.00
2008,05,31,15,33,17.00
2008,05,31,15,34,17.10
2008,05,31,15,35,17.20
2008,05,31,15,36,17.20
2008,05,31,15,37,17.30
2008,05,31,15,38,17.30
2008,05,31,15,39,17.30
2008,05,31,15,40,17.40
2008,05,31,15,41,17.40
2008,05,31,15,42,17.50
2008,05,31,15,43,17.60
2008,05,31,15,44,17.60
2008,05,31,15,45,17.60
2008,05,31,15,46,17.50
2008,05,31,15,47,17.40
2008,05,31,15,48,17.30
2008,05,31,15,49,17.40
2008,05,31,15,50,17.30
2008,05,31,15,51,17.30
2008,05,31,15,52,17.40
2008,05,31,15,53,17.40
2008,05,31,15,54,17.50
2008,05,31,15,55,17.50
2008,05,31,15,56,17.40
2008,05,31,15,57,17.50
2008,05,31,15,58,17.50
2008,05,31,15,59,17.40
2008,05,31,16,00,17.50
2008,05,31,16,01,17.60
2008,05,31,16,02,17.70
2008,05,31,16,03,17.80
2008,05,31,16,04,17.90
2008,05,31,16,05,18.00
2008,05,31,16,06,18.10
2008,05,31,16,07,18.10
2008,05,31,16,08,18.20
2008,05,31,16,09,18.20
2008,05,31,16,10,18.20
2008,05,31,16,11,18.30
2008,05,31,16,12,18.30
2008,05,31,16,13,18.20
2008,05,31,16,14,18.10
2008,05,31,16,15,18.00
2008,05,31,16,16,17.80
2008,05,31,16,17,17.70
2008,05,31,16,18,17.60
2008,05,31,16,19,17.60
2008,05,31,16,20,17.60
2008,05,31,16,21,17.70
2008,05,31,16,22,17.70
2008,05,31,16,23,17.70
2008,05,31,16,24,17.60
2008,05,31,16,25,17.60
2008,05,31,16,26,17.60
2008,05,31,16,27,17.60
2008,05,31,16,28,17.70
2008,05,31,16,29,17.70
2008,05,31,16,30,17.80
2008,05,31,16,31,17.90
2008,05,31,16,32,17.90
2008,05,31,16,33,17.90
2008,05,31,16,34,18.00
2008,05,31,16,35,18.00
2008,05,31,16,36,18.00
2008,05,31,16,37,18.10
2008,05,31,16,38,18.10
2008,05,31,16,39,18.10
2008,05,31,16,40,18.20
2008,05,31,16,41,18.20
2008,05,31,16,42,18.20
2008,05,31,16,43,18.20
2008,05,31,16,44,18.10
2008,05,31,16,45,18.10
2008,05,31,16,46,18.10
2008,05,31,16,47,18.10
2008,05,31,16,48,18.10
2008,05,31,16,49,18.10
2008,05,31,16,50,18.20
2008,05,31,16,51,18.20
2008,05,31,16,52,18.10
2008,05,31,16,53,18.10
2008,05,31,16,54,18.20
2008,05,31,16,55,18.30
2008,05,31,16,56,18.40
2008,05,31,16,57,18.50
2008,05,31,16,58,18.60
2008,05,31,16,59,18.60
2008,05,31,17,00,18.60
2008,05,31,17,01,18.60
2008,05,31,17,02,18.70
2008,05,31,17,03,18.70
2008,05,31,17,04,18.80
2008,05,31,17,05,18.80
2008,05,31,17,06,18.90
2008,05,31,17,07,18.90
2008,05,31,17,08,18.90
2008,05,31,17,09,18.90
2008,05,31,17,10,18.90
2008,05,31,17,11,18.90
2008,05,31,17,12,18.90
2008,05,31,17,13,19.00
2008,05,31,17,14,19.00
2008,05,31,17,15,19.00
2008,05,31,17,16,19.10
2008,05,31,17,17,19.10
2008,05,31,17,18,19.10
2008,05,31,17,19,19.20
2008,05,31,17,20,19.20
2008,05,31,17,21,19.30
2008,05,31,17,22,19.30
2008,05,31,17,23,19.30
2008,05,31,17,24,19.30
2008,05,31,17,25,19.30
2008,05,31,17,26,19.30
2008,05,31,17,27,19.30
2008,05,31,17,28,19.30
2008,05,31,17,29,19.40
2008,05,31,17,30,19.40
2008,05,31,17,31,19.40
2008,05,31,17,32,19.40
2008,05,31,17,33,19.40
2008,05,31,17,34,19.40
2008,05,31,17,35,19.40
2008,05,31,17,36,19.40
2008,05,31,17,37,19.40
2008,05,31,17,38,19.50
2008,05,31,17,39,19.60